EHI
4 5 8 10 9 8 7 6 6 5 4 4 3 3 3 3 3 3 3 4 5 6 7 5 4 4 4 5 5 4 4 4 5 6 5 5 5 6 6 4 1 2 4
4 6 9 10 9 8 7 6 6 6 5 4 3 3 3 3 3 3 3 3 4 5 5 4 3 4 5 5 6 5 4 4 5 5 4 4 4 5 4 3 2 2 4
4 6 9 10 10 9 7 6 6 6 5 4 3 3 3 3 3 4 3 3 3 4 3 3 3 3 4 6 6 5 4 4 4 4 3 2 2 3 3 3 3 3 4
4 6 9 11 12 10 8 6 6 5 4 4 4 3 3 3 4 4 4 3 3 3 3 3 3 3 4 4 4 4 4 4 4 3 1 0 1 2 3 3 3 4 4
4 5 8 12 12 10 8 7 7 5 4 4 3 3 3 4 5 4 4 3 3 3 3 3 3 3 3 3 3 4 4 3 2 1 0 0 1 3 4 4 3 3 4
3 4 7 11 12 10 8 8 8 6 4 3 3 3 3 4 5 4 4 4 3 3 3 3 3 3 3 3 4 4 4 2 1 0 0 0 1 5 7 6 4 3 3
3 3 6 9 11 9 8 7 8 7 5 4 3 3 3 4 5 4 4 4 4 3 3 3 3 3 3 4 4 4 3 2 0 0 0 0 1 5 8 8 6 4 3
4 4 6 8 9 8 6 6 6 7 7 5 4 4 4 4 5 4 3 4 4 4 3 3 3 3 4 5 5 3 2 1 0 0 0 1 2 5 8 9 8 5 4
6 6 6 7 7 6 5 4 4 6 7 6 5 5 5 5 4 3 3 3 4 3 3 3 3 4 5 6 5 4 3 2 1 0 0 1 4 7 8 9 8 6 4
7 7 6 6 6 6 5 4 4 5 6 6 5 5 4 4 3 3 3 4 4 5 5 5 6 7 7 7 6 4 3 3 1 0 1 3 7 9 10 10 7 5 5
7 7 6 6 6 5 5 5 5 5 4 4 4 4 3 3 3 3 4 6 7 7 8 8 10 10 9 6 5 4 3 1 0 0 1 4 8 10 11 10 8 5 5
6 6 6 6 5 4 4 5 4 4 3 3 3 3 3 3 3 3 5 7 8 8 8 8 9 8 5 3 2 2 1 0 0 0 2 5 8 9 10 10 9 7 7
4 4 5 6 5 4 3 4 3 3 3 3 4 3 3 3 3 3 3 5 6 6 5 4 4 3 2 0 0 0 0 0 0 0 2 6 7 7 8 9 11 10 9
4 4 5 6 6 4 3 3 3 3 3 4 4 4 3 3 3 2 1 2 3 2 1 1 1 1 0 0 1 1 1 1 0 0 2 5 6 6 6 8 12 13 12
6 5 6 7 6 4 3 3 3 3 3 3 4 4 3 3 2 1 0 1 2 1 1 1 0 0 1 1 2 2 2 2 1 0 1 3 6 7 8 9 12 13 12
8 7 7 6 5 4 4 4 4 3 3 3 4 4 4 3 2 1 1 2 2 2 2 2 1 1 2 3 3 3 3 3 2 1 0 2 5 8 10 12 13 12 11
6 7 6 5 5 5 5 5 4 2 3 3 3 4 5 4 3 3 3 3 3 3 3 3 3 3 3 3 3 3 3 3 3 2 1 0 2 5 10 13 14 12 12
5 6 7 6 5 5 4 4 3 1 2 4 4 4 5 6 5 5 4 3 3 2 2 2 2 3 3 3 3 3 3 3 3 2 1 0 0 2 5 11 13 12 11
8 8 8 7 5 4 2 2 1 0 2 4 5 5 6 7 6 5 3 2 1 1 1 2 1 2 3 3 3 3 3 3 3 2 1 0 0 0 2 6 9 10 9
14 13 10 8 5 2 1 0 0 1 2 4 6 7 7 7 7 5 3 1 1 1 2 2 2 1 2 3 3 3 3 3 2 2 1 0 0 0 0 2 3 5 6
17 15 12 9 5 2 0 0 0 1 2 3 5 8 8 7 7 6 4 3 3 3 3 3 3 2 1 2 3 3 2 1 1 1 0 0 0 0 0 0 0 1 2
19 18 15 11 7 3 1 1 2 2 2 1 3 6 7 7 7 7 6 5 4 4 3 3 3 3 2 3 3 3 2 1 1 1 0 0 0 0 0 0 0 0 1
23 22 19 14 11 8 6 5 5 5 3 1 2 4 6 6 8 8 7 6 5 5 4 3 3 3 3 3 3 3 3 2 2 2 1 1 0 0 0 0 0 0 0
26 25 22 19 17 14 12 11 9 7 5 3 3 5 6 8 9 9 9 9 8 7 6 5 4 4 3 3 3 3 3 3 3 3 3 2 1 0 0 0 0 0 0
31 30 28 24 21 18 16 14 12 9 6 4 5 8 9 9 9 10 11 11 11 11 9 6 5 5 4 4 4 4 4 4 4 4 4 3 1 0 0 0 0 0 0
36 37 34 27 22 18 16 15 13 10 7 5 8 11 11 9 9 9 11 12 12 12 9 7 5 6 6 5 5 5 5 5 5 5 5 3 2 1 0 0 0 0 0
Wind_Speed
2 3 9 10 10 10 11 11 11 11 12 13 13 14 14 15 15 15 15 15 16 17 17 18 17 17 18 18 18 18 18 17 17 16 16 16 16 15 15 15 14 10 15
5 5 11 11 11 10 10 11 11 11 12 13 13 14 14 15 15 15 15 16 16 16 17 17 16 16 16 17 17 17 17 17 16 15 15 14 15 14 14 14 13 9 15
7 5 9 11 11 11 11 11 11 12 12 13 13 13 14 15 15 15 15 15 15 16 16 16 15 15 15 16 16 16 16 16 15 15 13 7 9 13 13 14 14 14 14
8 5 7 11 11 11 11 11 11 12 12 13 13 14 14 14 14 15 15 15 15 15 15 14 14 14 14 15 15 15 14 14 14 13 6 5 6 12 13 13 14 13 13
7 5 7 12 11 11 11 11 11 12 12 13 13 14 14 13 14 14 15 15 14 14 14 13 13 13 13 13 13 13 13 13 13 10 5 4 4 11 13 13 13 13 13
7 5 7 12 12 11 11 11 11 12 12 13 13 13 13 13 13 13 13 13 14 13 13 12 12 12 11 11 11 11 10 11 10 5 5 4 4 10 12 12 12 12 12
7 5 7 12 12 11 11 11 11 12 12 13 13 13 12 13 13 12 12 12 12 12 12 11 11 11 10 10 10 9 9 10 6 4 4 4 5 10 12 12 12 12 12
9 6 6 11 12 11 11 11 11 12 12 12 12 12 12 12 12 12 12 12 12 11 11 10 10 9 8 8 8 8 9 9 7 6 4 4 8 10 11 11 12 11 11
9 7 4 5 7 10 11 11 11 11 11 11 11 11 11 11 11 11 11 11 11 11 10 9 8 8 7 7 7 7 8 9 5 4 5 4 8 10 11 11 11 11 11
7 6 5 4 4 4 6 10 10 10 11 10 10 10 10 10 10 10 9 10 10 10 9 8 8 7 6 6 6 6 7 7 3 4 3 5 9 10 11 12 11 11 11
7 5 5 4 4 4 4 7 7 8 8 8 7 9 7 4 4 5 7 9 9 8 8 7 7 6 5 4 5 5 5 3 3 3 3 7 10 11 11 11 11 11 10
7 6 5 5 5 4 4 4 2 3 3 3 2 3 3 2 2 4 6 8 8 7 7 6 5 4 2 1 2 3 2 3 3 3 4 10 10 11 12 11 11 10 10
7 7 6 6 5 4 3 3 2 1 2 2 3 3 3 2 2 2 1 2 3 4 2 3 2 1 1 1 1 1 3 3 2 3 5 10 10 11 12 11 11 10 10
6 6 6 6 5 4 4 3 3 2 2 2 3 4 3 2 2 2 1 1 1 1 2 2 1 1 1 2 2 2 3 3 3 2 4 10 10 11 11 11 11 10 10
6 5 6 6 5 4 4 2 3 2 2 2 2 3 3 3 3 2 2 1 2 1 2 2 2 2 2 2 2 3 4 4 4 3 3 10 11 11 11 11 11 10 10
6 5 5 5 5 5 3 2 2 2 2 2 2 2 4 3 3 2 2 2 2 2 2 2 2 2 2 1 1 2 3 4 4 4 3 6 10 10 11 11 10 10 10
6 5 5 5 5 4 3 3 2 2 2 2 2 2 3 3 3 3 2 2 1 1 2 1 1 1 1 1 1 1 2 4 4 4 4 3 4 8 10 10 10 10 10
6 5 5 5 5 4 3 2 2 2 2 2 1 2 3 3 3 3 2 1 1 1 1 2 1 1 1 1 0 0 1 2 4 4 3 3 3 3 6 10 9 9 9
7 6 5 4 5 4 3 2 2 2 2 1 1 1 2 3 3 3 2 1 1 2 1 2 1 2 1 1 0 0 0 1 2 3 3 4 4 4 3 6 8 8 9
6 6 5 4 4 4 3 2 1 1 1 1 1 2 2 2 3 3 2 2 2 2 1 1 1 1 1 1 1 1 1 0 1 1 3 3 3 4 3 3 3 4 7
6 5 5 5 4 3 2 2 2 1 1 1 1 2 3 2 3 3 2 2 2 2 2 2 2 2 1 1 2 2 2 2 1 1 1 1 1 2 2 2 2 2 2
7 6 5 5 4 4 3 2 2 2 2 1 1 1 2 3 3 3 3 2 2 2 2 1 2 2 1 1 2 2 1 3 3 2 1 1 1 1 2 2 2 2 1
8 7 6 5 5 4 3 2 2 2 1 1 0 0 1 2 3 3 3 2 2 2 2 2 2 3 2 1 2 3 2 2 1 2 1 1 1 1 1 2 2 1 1
8 7 6 6 5 4 4 4 4 3 2 2 2 2 1 1 2 3 3 3 2 2 2 2 2 2 3 2 1 1 2 3 2 0 1 1 1 1 1 1 2 2 1
9 8 6 6 5 4 4 5 4 3 2 1 1 2 1 1 1 2 3 2 2 2 2 2 2 2 2 2 2 1 1 1 2 2 1 1 1 1 1 1 1 1 1
8 7 7 6 5 5 5 5 5 5 4 3 2 2 1 0 0 1 2 2 2 2 2 2 2 2 2 2 2 1 2 2 2 2 2 1 0 0 1 1 1 1 1
Wind_Direction
118 122 111 103 97 93 89 88 88 88 89 91 91 96 99 101 102 101 104 108 109 109 109 111 112 111 113 115 116 116 117 117 117 119 119 119 119 119 119 117 113 110 113
140 122 112 106 101 97 94 92 93 93 92 96 99 100 103 104 102 103 105 108 112 113 113 111 112 113 114 116 116 117 118 118 118 119 119 121 121 121 122 121 118 118 118
126 115 110 107 103 100 98 97 97 97 97 101 104 105 105 106 106 107 108 110 112 116 117 116 115 116 118 118 119 119 119 120 121 119 116 109 118 124 124 123 122 120 120
128 121 115 111 107 103 101 102 102 102 102 105 106 107 108 109 110 111 109 110 112 115 117 117 118 121 121 121 122 122 124 125 125 124 115 112 120 126 125 124 124 123 122
124 120 123 116 112 107 104 105 105 107 108 111 110 111 111 111 110 111 112 113 114 115 118 119 121 123 124 123 123 124 125 126 126 122 115 114 119 130 129 128 128 127 126
126 125 127 120 116 111 108 107 108 110 112 114 113 113 114 114 112 112 113 115 118 119 121 122 122 123 125 125 125 126 128 128 124 116 119 123 127 136 135 134 134 133 131
133 133 130 124 121 117 114 114 112 114 115 115 115 115 115 115 115 115 115 117 120 124 125 123 122 122 121 127 130 128 129 134 125 121 125 130 137 141 140 139 138 138 136
141 138 133 133 129 124 120 120 120 118 118 119 119 119 118 117 118 118 117 120 121 123 124 124 124 122 120 120 125 127 131 140 132 131 125 134 147 147 146 144 144 143 142
142 138 133 135 132 132 129 124 126 127 127 127 127 125 124 123 122 122 122 123 124 127 128 127 128 128 122 117 120 127 134 142 128 132 140 142 151 153 153 150 150 150 149
141 142 144 139 133 132 131 133 131 133 135 134 133 131 130 130 129 129 129 132 132 132 133 132 132 132 128 125 124 128 137 136 130 133 136 155 157 157 157 157 157 156 156
143 150 157 152 151 150 150 146 140 140 143 142 140 140 130 117 123 132 142 143 143 143 142 142 143 142 138 138 142 133 133 135 140 142 155 163 165 164 162 163 163 163 163
154 161 161 159 158 159 159 137 137 141 139 138 140 142 131 136 150 152 157 158 157 154 153 154 155 152 147 129 144 131 131 146 144 156 169 167 168 166 166 168 168 167 167
158 159 166 165 161 158 144 147 150 148 148 156 164 171 160 149 145 135 135 154 157 161 156 157 162 170 171 174 171 152 149 154 154 168 171 169 170 169 171 171 172 172 173
137 144 150 149 147 150 146 157 160 159 162 171 178 174 157 146 149 150 148 164 160 160 161 164 177 197 220 212 192 165 161 159 155 162 173 172 173 174 175 174 174 175 176
134 141 143 140 137 137 135 143 143 158 166 165 159 161 152 151 158 162 170 169 178 178 178 179 194 200 211 214 200 173 163 156 158 162 166 169 170 174 178 178 177 177 180
141 145 142 137 136 132 132 135 142 155 153 146 151 159 151 153 157 156 165 171 183 180 185 185 196 193 191 173 178 170 161 155 155 160 166 176 182 185 186 185 185 188 191
147 143 144 142 134 133 132 133 142 151 142 142 159 152 140 146 153 153 158 167 187 175 167 151 164 158 146 153 171 162 147 154 158 167 173 180 188 191 190 191 194 196 198
144 143 148 145 139 141 137 135 132 136 142 150 155 149 145 150 152 146 148 168 166 134 136 143 145 131 127 126 128 134 146 160 170 174 179 185 187 192 197 196 198 201 207
150 147 142 138 146 151 142 131 130 127 133 139 137 145 152 150 149 144 152 173 147 128 138 159 136 139 137 145 174 77 142 172 183 182 183 192 195 197 200 199 200 203 212
148 144 141 140 149 147 133 116 100 92 111 124 142 160 161 158 155 147 155 163 142 130 130 135 141 130 148 160 95 46 18 57 161 181 198 200 201 204 203 202 202 214 220
145 144 147 147 160 149 140 140 138 153 164 169 183 171 167 162 157 153 149 150 142 141 158 153 139 122 113 117 88 34 9 17 5 211 178 161 194 204 186 182 184 198 224
161 160 158 161 167 167 170 167 164 159 172 176 181 154 164 161 157 152 148 152 155 140 131 141 136 134 162 136 129 107 15 359 4 5 72 127 142 129 140 161 161 179 204
170 172 170 173 173 177 172 146 125 94 71 72 117 187 190 166 162 156 163 159 164 156 164 180 165 157 173 218 153 143 150 209 310 347 11 85 113 121 153 156 151 169 181
181 175 169 170 173 177 165 153 154 158 174 196 182 183 196 185 171 165 162 165 173 172 173 191 165 167 160 187 222 163 168 163 161 252 338 6 36 94 123 133 146 148 153
180 173 169 166 170 171 165 164 159 164 178 170 149 152 179 208 183 168 163 162 170 178 181 180 163 163 168 176 184 170 142 146 150 156 214 310 9 17 88 115 102 100 132
174 170 167 167 176 176 173 169 167 171 168 152 149 151 164 177 170 170 155 157 169 172 177 182 176 168 174 171 180 172 165 168 180 163 175 199 202 340 44 62 85 88 78